NOAA 16 DEB, 42417

Orbit data source: Space-Track

NOAA 16 DEB, 42417 is space debris in SSO originally from a launch on Thu, 21 Sep 2000 UTC launched from the Air Force Western Test Range (AFWTR). Debris objects in space refer to the collection of defunct objects orbiting the Earth. Examples of debris include non-operational satellites, rocket bodies, and fragments generated from explosions, collisions, or faulty payload assembly.

Loading next visibility...
Identifier
42417, 2000-055TM
Orbit
SSO
Country
Flag of USUS
Related business
Manufacturer
Unknown
Mission
Spacecraft
Bus & Motor
Unknown
Mass
Unknown
Launch date (UTC)
2000-09-21 (25 years ago)
Launch vehicle
Unknown
Launch site
Air Force Western Test Range (AFWTR)
Object type
Payload
Rocket body
Debris
Shape & HBR
Unknown shape, 0.1 m
Radar Cross Section
Small (<0.1 m²)

Expand to show TLE details & history
Last TLE update: 22 hours ago

TLE from 22 hours ago
0 NOAA 16 DEB
1 42417U 00055TM  25349.15964416  .00004196  00000-0  16257-2 0  9990
2 42417  98.7495  61.4309 0027242 236.7269 123.1303 14.30342127504208
Epoch: 2025-12-15T03:49Z
TLE epoch observation values (Epoch: 2025-12-15T03:49:53.255Z)
Latitude
0.00001°
Longitude
-80.1032°
Altitude
804.228 km
Speed
7.446 km/s
True Right ascension
04h 05m 43s
True Declination
0° 00' 00"
Sunlit
Object was in full shadow at epoch
Visualization orbit readout
Latitude
Unknown
Longitude
Unknown
Altitude
Unknown
Speed
Unknown
Apparent Right ascension
Unknown
Apparent Declination
Unknown
Sunlit
N/A
Visualization observer readout
Local Sidereal Time
00:39:34
Azimuth
Unknown
Elevation
Unknown
Doppler factor
Unknown
Orbital elements
Apogee altitude
807.255 km
Perigee altitude
768.213 km
Semi-major axis
7,165.871 km
Eccentricity
0.00272
Inclination
98.7495°
RAAN
61.4309°
Arg. of periapsis
236.7269°
True anomaly
123.39123°
Mean anomaly
123.1303°
Eccentric anomaly
123.26082°
Mean motion
3.57799 °/min
Orbital period
100.62 mins
BSTAR
0.0016257
Loading maneuver chart data...
Computing Atmospheric mass density...
Loading historical data...
Loading historical data...
Loading historical data...
Loading historical data...
Loading historical data...
Loading historical data...
Loading historical data...

Documentation

Showing up to 5 results
|